User: anonymous   Login
Location: Unspecified
(0.0000°N, 0.0000°E)
Time: 21:04:54
(UTC+00:00)
Language:

TBA - TO BE ASSIGNED - Orbit

View from above orbital plane
View from above orbital plane
View from above satellite
View from above satellite

Ground track
Ground track

The orbit is defined by the following mean orbital elements,

1 68518U          26145.37258781 +.00000000 +00000-0 +52314-3 0 00008
2 68518  53.1598 131.7932 0001019  72.9713 287.1401 15.34401976    00
Epoch (UTC): 25 May 2026 08:56:31
Eccentricity: 0.0001019
inclination: 53.1598°
perigee height: 462 km
apogee height: 463 km
right ascension of ascending node: 131.7932°
argument of perigee: 72.9713°
revolutions per day: 15.34401976
mean anomaly at epoch: 287.1401°

The dashed part of the orbit path shows where the satellite is in the earth's shadow,  

DLR